Jordan, MT

5:40 PM MDT on October 01, 2016 (GMT -0600)
Jordan

Weather History for KJDN - October, 2013

Change the Weather History Date:

Friday, October 4, 2013

  Actual Average Record
Temperature  
Mean Temperature 34 °F 49 °F  
Max Temperature 47 °F 64 °F 92 °F (1910)
Min Temperature 21 °F 34 °F 21 °F (2000)
Degree Days  
Heating Degree Days 31 16  
Month to date heating degree days 85 62  
Since 1 July heating degree days 246 388  
Cooling Degree Days 0 0  
Month to date cooling degree days 0 0  
Year to date cooling degree days 520 420  
Moisture  
Dew Point 25 °F    
Average Humidity 65    
Maximum Humidity 88    
Minimum Humidity 41    
Precipitation  
Precipitation 0.00 in 0.03 in 0.71 in (1989)
Month to date precipitation 0.02 0.12  
Year to date precipitation 15.48 11.25  
Snow  
Snow 0.00 in - - ()
Month to date snowfall 0.0  
Since 1 July snowfall 0.0  
Since 1 September snowfall 0.0  
Snow Depth 0.00 in    
Sea Level Pressure  
Sea Level Pressure 30.46 in    
Wind  
Wind Speed 8 mph (North)    
Max Wind Speed 17 mph    
Max Gust Speed 22 mph    
T = Trace of Precipitation, MM = Missing Value Source: NWS Daily Summary

Daily Weather History Graph

Daily Weather History Graph

Search for Another Location

Airport or City:

Trip Planner

Search our weather history database for the weather conditions in past years. The results will help you decide how hot, cold, wet, or windy it might be!

Date:

Astronomy

Oct. 04, 2013 Rise Set
Actual Time 7:11 AM MDT 6:40 PM MDT
Civil Twilight 6:40 AM MDT 7:11 PM MDT
Nautical Twilight 6:05 AM MDT 7:46 PM MDT
Astronomical Twilight 5:29 AM MDT 8:22 PM MDT
Moon 6:50 AM MDT (10/4) 6:21 PM MDT (10/4)
Length of Visible Light 12h 30m
Length of Day
11h 29m
Waning Crescent, 0% of the Moon is Illuminated
Oct 4
Waning Crescent
Oct 4
New
Oct 11
First Quarter
Oct 18
Full
Oct 26
Last Quarter

Hourly Weather History & Observations

Time (MDT) Temp. Windchill Dew Point Humidity Pressure Visibility Wind Dir Wind Speed Gust Speed Precip Events Conditions
12:48 AM 37.0 °F 34.5 °F 28.9 °F 73% 30.41 in - North 3.5 mph - N/A   Unknown
1:48 AM 37.0 °F 34.5 °F 28.9 °F 73% 30.42 in - NW 3.5 mph - N/A   Unknown
2:48 AM 37.9 °F 33.5 °F 28.0 °F 68% 30.43 in - North 5.8 mph - N/A   Unknown
3:48 AM 37.9 °F 32.7 °F 28.9 °F 70% 30.43 in - North 6.9 mph - N/A   Unknown
4:48 AM 39.0 °F 31.8 °F 27.0 °F 62% 30.42 in - North 11.5 mph - N/A   Unknown
5:48 AM 37.9 °F 31.5 °F 27.0 °F 65% 30.45 in - North 9.2 mph - N/A   Unknown
6:48 AM 37.0 °F 31.0 °F 28.0 °F 70% 30.49 in - North 8.1 mph - N/A   Unknown
7:48 AM 36.0 °F 29.0 °F 28.0 °F 73% 30.48 in - NNW 9.2 mph - N/A   Unknown
8:48 AM 36.0 °F 28.5 °F 30.0 °F 79% 30.48 in - North 10.4 mph - N/A   Unknown
9:48 AM 37.0 °F 29.3 °F 28.9 °F 73% 30.51 in - North 11.5 mph - N/A   Unknown
10:48 AM 37.9 °F 29.6 °F 26.1 °F 62% 30.51 in - North 13.8 mph - N/A   Unknown
11:48 AM 39.9 °F 33.4 °F 27.0 °F 60% 30.51 in - North 10.4 mph - N/A   Unknown
12:48 PM 41.0 °F 33.1 °F 26.1 °F 55% 30.50 in - North 15.0 mph - N/A   Unknown
1:48 PM 43.0 °F 36.4 °F 25.0 °F 49% 30.47 in - North 12.7 mph 20.7 mph N/A   Unknown
2:48 PM 46.0 °F 41.4 °F 25.0 °F 44% 30.46 in - North 9.2 mph 21.9 mph N/A   Unknown
3:48 PM 46.0 °F 40.6 °F 24.1 °F 42% 30.46 in - North 11.5 mph 18.4 mph N/A   Unknown
4:48 PM 46.0 °F 40.6 °F 24.1 °F 42% 30.45 in - North 11.5 mph - N/A   Unknown
5:48 PM 44.1 °F 39.5 °F 23.0 °F 43% 30.44 in - North 8.1 mph - N/A   Unknown
6:48 PM 37.0 °F 31.6 °F 24.1 °F 59% 30.45 in - ENE 6.9 mph - N/A   Unknown
7:48 PM 28.9 °F - 21.9 °F 75% 30.46 in - Calm Calm - N/A   Unknown
8:48 PM 28.0 °F - 21.9 °F 78% 30.47 in - Calm Calm - N/A   Unknown
9:48 PM 26.1 °F - 19.9 °F 78% 30.46 in - Calm Calm - N/A   Unknown
10:48 PM 23.0 °F 15.8 °F 19.9 °F 88% 30.45 in - WNW 5.8 mph - N/A   Unknown
11:48 PM 23.0 °F 15.8 °F 19.9 °F 88% 30.43 in - WNW 5.8 mph - N/A   Unknown